Weather History for KACJ - October, 2012

Change the Weather History Date:

Monday, October 29, 2012

  Actual Average (KABY) Record (KABY)
Temperature  
Mean Temperature 52 °F 64 °F  
Max Temperature 60 °F 77 °F 89 °F (1940)
Min Temperature 44 °F 51 °F 30 °F (1968)
Degree Days  
Heating Degree Days 13 4  
Month to date heating degree days 40  
Since 1 July heating degree days 41  
Cooling Degree Days 0 3  
Month to date cooling degree days 142  
Year to date cooling degree days 2498  
Growing Degree Days 2 (Base 50)    
Moisture  
Dew Point 32 °F    
Average Humidity 51    
Maximum Humidity 71    
Minimum Humidity 27    
Precipitation  
Precipitation 0.00 in - 0.65 in (2002)
Sea Level Pressure  
Sea Level Pressure 29.87 in    
Wind  
Wind Speed 11 mph ()    
Max Wind Speed 21 mph    
Max Gust Speed 30 mph    
Visibility 10.0 miles    
Events      
T = Trace of Precipitation, MM = Missing Value Source: Averaged Metar Reports

Daily Weather History Graph

Daily Weather History Graph

Search for Another Location

Airport or City:

Trip Planner

Search our weather history database for the weather conditions in past years. The results will help you decide how hot, cold, wet, or windy it might be!

Date:

Astronomy

Oct. 29, 2012 Rise Set
Actual Time 7:51 AM EDT 6:48 PM EDT
Civil Twilight 7:26 AM EDT 7:14 PM EDT
Nautical Twilight 6:57 AM EDT 7:42 PM EDT
Astronomical Twilight 6:28 AM EDT 8:11 PM EDT
Moon 6:43 PM EDT 7:39 AM EDT
Length of Visible Light 11h 47m
Length of Day
10h 57m
Full, 100% of the Moon is Illuminated
Oct 29
Full
Oct 29
Full
Nov 6
Last Quarter
Nov 13
New
Nov 20
First Quarter

Hourly Weather History & Observations

Time (EDT) Temp. Windchill Dew Point Humidity Pressure Visibility Wind Dir Wind Speed Gust Speed Precip Events Conditions
12:15 AM 50.0 °F - 35.6 °F 58% 29.89 in 10.0 mi NNW 9.2 mph - N/A   Clear
12:35 AM 48.2 °F - 35.6 °F 62% 29.89 in 10.0 mi NNW 9.2 mph - N/A   Clear
12:55 AM 48.2 °F - 35.6 °F 62% 29.89 in 10.0 mi NNW 8.1 mph 16.1 mph N/A   Clear
1:15 AM 48.2 °F - 35.6 °F 62% 29.89 in 10.0 mi NNW 10.4 mph - N/A   Clear
1:35 AM 46.4 °F 41.1 °F 35.6 °F 66% 29.89 in 10.0 mi NNW 11.5 mph - N/A   Clear
1:55 AM 46.4 °F 41.5 °F 35.6 °F 66% 29.89 in 10.0 mi NNW 10.4 mph - N/A   Clear
2:15 AM 46.4 °F 41.5 °F 35.6 °F 66% 29.89 in 10.0 mi NW 10.4 mph - N/A   Clear
2:35 AM 46.4 °F 42.4 °F 35.6 °F 66% 29.89 in 10.0 mi NW 8.1 mph - N/A   Clear
2:55 AM 46.4 °F 42.4 °F 35.6 °F 66% 29.89 in 10.0 mi NW 8.1 mph - N/A   Clear
3:15 AM 44.6 °F 40.7 °F 35.6 °F 71% 29.88 in 10.0 mi NW 6.9 mph - N/A   Clear
3:35 AM 44.6 °F 40.7 °F 35.6 °F 71% 29.88 in 10.0 mi NW 6.9 mph - N/A   Clear
3:55 AM 44.6 °F 39.7 °F 35.6 °F 71% 29.88 in 10.0 mi NW 9.2 mph - N/A   Clear
4:15 AM 44.6 °F 39.7 °F 35.6 °F 71% 29.88 in 10.0 mi NW 9.2 mph - N/A   Clear
4:35 AM 44.6 °F 40.2 °F 35.6 °F 71% 29.88 in 10.0 mi NW 8.1 mph - N/A   Clear
4:55 AM 44.6 °F 40.7 °F 35.6 °F 71% 29.88 in 10.0 mi NW 6.9 mph - N/A   Clear
5:15 AM 44.6 °F 39.7 °F 35.6 °F 71% 29.88 in 10.0 mi NW 9.2 mph - N/A   Clear
5:35 AM 44.6 °F 39.2 °F 35.6 °F 71% 29.88 in 10.0 mi NW 10.4 mph 16.1 mph N/A   Clear
5:55 AM 44.6 °F 38.4 °F 35.6 °F 71% 29.88 in 10.0 mi NW 12.7 mph 18.4 mph N/A   Clear
6:15 AM 44.6 °F 40.2 °F 35.6 °F 71% 29.89 in 10.0 mi NNW 8.1 mph - N/A   Clear
6:55 AM 44.6 °F 38.4 °F 33.8 °F 66% 29.88 in 10.0 mi NNW 12.7 mph 18.4 mph N/A   Clear
7:15 AM 44.6 °F 37.8 °F 33.8 °F 66% 29.89 in 10.0 mi NNW 15.0 mph 21.9 mph N/A   Clear
7:35 AM 44.6 °F 38.4 °F 33.8 °F 66% 29.89 in 10.0 mi NNW 12.7 mph 18.4 mph N/A   Clear
7:55 AM 44.6 °F 38.8 °F 33.8 °F 66% 29.90 in 10.0 mi NNW 11.5 mph 18.4 mph N/A   Clear
8:15 AM 44.6 °F 39.2 °F 33.8 °F 66% 29.90 in 10.0 mi NNW 10.4 mph 16.1 mph N/A   Clear
8:35 AM 44.6 °F 38.4 °F 33.8 °F 66% 29.91 in 10.0 mi NNW 12.7 mph 21.9 mph N/A   Clear
8:55 AM 44.6 °F 38.1 °F 33.8 °F 66% 29.92 in 10.0 mi NNW 13.8 mph 18.4 mph N/A   Clear
9:15 AM 44.6 °F 37.8 °F 33.8 °F 66% 29.92 in 10.0 mi NNW 15.0 mph 24.2 mph N/A   Clear
9:35 AM 46.4 °F 39.8 °F 33.8 °F 62% 29.92 in 10.0 mi NNW 16.1 mph 23.0 mph N/A   Clear
9:55 AM 46.4 °F 39.8 °F 33.8 °F 62% 29.92 in 10.0 mi NNW 16.1 mph 24.2 mph N/A   Clear
10:15 AM 48.2 °F - 33.8 °F 58% 29.91 in 10.0 mi NNW 15.0 mph 23.0 mph N/A   Clear
10:35 AM 50.0 °F - 33.8 °F 54% 29.91 in 10.0 mi NNW 13.8 mph 23.0 mph N/A   Clear
10:55 AM 51.8 °F - 32.0 °F 47% 29.91 in 10.0 mi NNW 15.0 mph 25.3 mph N/A   Clear
11:15 AM 53.6 °F - 32.0 °F 44% 29.91 in 10.0 mi North 17.3 mph 26.5 mph N/A   Clear
11:35 AM 53.6 °F - 32.0 °F 44% 29.91 in 10.0 mi NNW 16.1 mph 27.6 mph N/A   Clear
11:55 AM 53.6 °F - 32.0 °F 44% 29.91 in 10.0 mi NNW 18.4 mph 25.3 mph N/A   Clear
12:15 PM 55.4 °F - 32.0 °F 41% 29.90 in 10.0 mi North 19.6 mph 24.2 mph N/A   Clear
12:35 PM 55.4 °F - 32.0 °F 41% 29.89 in 10.0 mi NW 17.3 mph 25.3 mph N/A   Clear
12:55 PM 55.4 °F - 32.0 °F 41% 29.88 in 10.0 mi NNW 18.4 mph 27.6 mph N/A   Clear
1:35 PM 59.0 °F - 32.0 °F 36% 29.86 in 10.0 mi NNW 13.8 mph 23.0 mph N/A   Clear
1:55 PM 59.0 °F - 30.2 °F 34% 29.85 in 10.0 mi NW 18.4 mph 28.8 mph N/A   Clear
2:15 PM 59.0 °F - 30.2 °F 34% 29.84 in 10.0 mi NW 20.7 mph 29.9 mph N/A   Clear
2:35 PM 59.0 °F - 28.4 °F 31% 29.84 in 10.0 mi NNW 13.8 mph 27.6 mph N/A   Clear
2:55 PM 60.8 °F - 30.2 °F 31% 29.82 in 10.0 mi NW 16.1 mph 26.5 mph N/A   Clear
3:15 PM 60.8 °F - 28.4 °F 29% 29.82 in 10.0 mi NW 17.3 mph 28.8 mph N/A   Clear
3:35 PM 60.8 °F - 28.4 °F 29% 29.81 in 10.0 mi NNW 16.1 mph 27.6 mph N/A   Clear
3:55 PM 60.8 °F - 28.4 °F 29% 29.81 in 10.0 mi NW 18.4 mph 24.2 mph N/A   Clear
4:15 PM 60.8 °F - 26.6 °F 27% 29.81 in 10.0 mi NNW 18.4 mph 29.9 mph N/A   Clear
4:35 PM 59.0 °F - 28.4 °F 31% 29.81 in 10.0 mi NW 18.4 mph 27.6 mph N/A   Clear
4:55 PM 59.0 °F - 26.6 °F 29% 29.81 in 10.0 mi NNW 15.0 mph 24.2 mph N/A   Clear
5:15 PM 59.0 °F - 28.4 °F 31% 29.80 in 10.0 mi NW 18.4 mph 24.2 mph N/A   Clear
5:35 PM 59.0 °F - 26.6 °F 29% 29.80 in 10.0 mi NNW 17.3 mph 26.5 mph N/A   Clear
5:55 PM 57.2 °F - 28.4 °F 33% 29.80 in 10.0 mi NW 13.8 mph 23.0 mph N/A   Clear
6:15 PM 57.2 °F - 26.6 °F 31% 29.82 in 10.0 mi NW 11.5 mph 19.6 mph N/A   Clear
6:35 PM 55.4 °F - 28.4 °F 36% 29.82 in 10.0 mi NW 13.8 mph 20.7 mph N/A   Clear
6:55 PM 53.6 °F - 28.4 °F 38% 29.83 in 10.0 mi NW 11.5 mph 20.7 mph N/A   Clear
7:15 PM 53.6 °F - 28.4 °F 38% 29.83 in 10.0 mi NW 9.2 mph - N/A   Clear
7:35 PM 53.6 °F - 28.4 °F 38% 29.84 in 10.0 mi NW 10.4 mph 16.1 mph N/A   Clear
7:55 PM 51.8 °F - 26.6 °F 38% 29.84 in 10.0 mi NW 6.9 mph 20.7 mph N/A   Clear
8:15 PM 51.8 °F - 26.6 °F 38% 29.84 in 10.0 mi NW 6.9 mph - N/A   Clear
8:35 PM 51.8 °F - 28.4 °F 41% 29.84 in 10.0 mi NW 5.8 mph - N/A   Clear
11:35 PM 46.4 °F 41.9 °F 26.6 °F 46% 29.85 in 10.0 mi NW 9.2 mph 17.3 mph N/A   Clear
11:55 PM 46.4 °F 40.4 °F 26.6 °F 46% 29.85 in 10.0 mi NW 13.8 mph 19.6 mph N/A   Clear